Satellite: NOAA-11 Catalog number: 19531 Epoch time: 11334.87508242 Element set: 0721 Inclination: 098.7461 deg RA of node: 059.1312 deg Eccentricity: 0.0011970 Arg of perigee: 073.2946 deg Mean anomaly: 286.9560 deg Mean motion: 14.14941278 rev/day Decay rate: 1.06e-06 rev/day^2 Epoch rev: 19632 Checksum: 299
Satellite: NOAA-12 Catalog number: 21263 Epoch time: 11334.98445612 Element set: 0231 Inclination: 098.7439 deg RA of node: 352.4500 deg Eccentricity: 0.0014625 Arg of perigee: 061.2471 deg Mean anomaly: 299.0176 deg Mean motion: 14.25459545 rev/day Decay rate: 1.16e-06 rev/day^2 Epoch rev: 06817 Checksum: 290
Satellite: MET-3/5 Catalog number: 21655 Epoch time: 11334.65674423 Element set: 0274 Inclination: 082.5562 deg RA of node: 293.1483 deg Eccentricity: 0.0014670 Arg of perigee: 099.5718 deg Mean anomaly: 260.7051 deg Mean motion: 13.17030732 rev/day Decay rate: 5.1e-07 rev/day^2 Epoch rev: 97563 Checksum: 299
Satellite: MET-2/21 Catalog number: 22782 Epoch time: 11334.64782763 Element set: 0270 Inclination: 082.5471 deg RA of node: 190.8154 deg Eccentricity: 0.0022547 Arg of perigee: 355.9430 deg Mean anomaly: 004.1548 deg Mean motion: 13.83669409 rev/day Decay rate: -1.2e-07 rev/day^2 Epoch rev: 92157 Checksum: 304
Satellite: OKEAN-4 Catalog number: 23317 Epoch time: 11334.93604875 Element set: 0791 Inclination: 082.5411 deg RA of node: 217.4052 deg Eccentricity: 0.0020204 Arg of perigee: 292.0616 deg Mean anomaly: 067.8453 deg Mean motion: 14.83409522 rev/day Decay rate: 1.691e-05 rev/day^2 Epoch rev: 92526 Checksum: 288
Satellite: NOAA-14 Catalog number: 23455 Epoch time: 11334.90932379 Element set: 0712 Inclination: 098.8422 deg RA of node: 055.8057 deg Eccentricity: 0.0009502 Arg of perigee: 161.9598 deg Mean anomaly: 198.1911 deg Mean motion: 14.13857390 rev/day Decay rate: 1.60e-06 rev/day^2 Epoch rev: 87263 Checksum: 320
Satellite: NOAA-15 Catalog number: 25338 Epoch time: 11335.42343281 Element set: 41 Inclination: 098.6723 deg RA of node: 319.4248 deg Eccentricity: 0.0010355 Arg of perigee: 331.3077 deg Mean anomaly: 028.7550 deg Mean motion: 14.24996227 rev/day Decay rate: 3.66e-06 rev/day^2 Epoch rev: 70454 Checksum: 294
Satellite: RESURS Catalog number: 25394 Epoch time: 11334.95829255 Element set: 0960 Inclination: 098.3063 deg RA of node: 328.8571 deg Eccentricity: 0.0002220 Arg of perigee: 089.0247 deg Mean anomaly: 271.1188 deg Mean motion: 14.24259196 rev/day Decay rate: 1.03e-06 rev/day^2 Epoch rev: 69604 Checksum: 303
Satellite: FENGYUN1 Catalog number: 25730 Epoch time: 11334.92859583 Element set: 0495 Inclination: 098.8324 deg RA of node: 292.6106 deg Eccentricity: 0.0022023 Arg of perigee: 210.5938 deg Mean anomaly: 149.3938 deg Mean motion: 14.09095609 rev/day Decay rate: 1.069e-05 rev/day^2 Epoch rev: 64654 Checksum: 323
Satellite: OKEAN-0 Catalog number: 25860 Epoch time: 11334.96894966 Element set: 0497 Inclination: 097.9076 deg RA of node: 297.0539 deg Eccentricity: 0.0001313 Arg of perigee: 103.7379 deg Mean anomaly: 256.3975 deg Mean motion: 14.73982114 rev/day Decay rate: 9.38e-06 rev/day^2 Epoch rev: 66522 Checksum: 349
Satellite: NOAA-16 Catalog number: 26536 Epoch time: 11335.37335250 Element set: 523 Inclination: 099.1226 deg RA of node: 009.1670 deg Eccentricity: 0.0009872 Arg of perigee: 283.4209 deg Mean anomaly: 076.5902 deg Mean motion: 14.12678154 rev/day Decay rate: 4.05e-06 rev/day^2 Epoch rev: 57696 Checksum: 306
Satellite: NOAA-17 Catalog number: 27453 Epoch time: 11334.87805417 Element set: 0506 Inclination: 098.3604 deg RA of node: 006.7713 deg Eccentricity: 0.0012202 Arg of perigee: 025.8159 deg Mean anomaly: 334.3590 deg Mean motion: 14.24357739 rev/day Decay rate: 1.35e-06 rev/day^2 Epoch rev: 49038 Checksum: 298
Satellite: NOAA-18 Catalog number: 28654 Epoch time: 11334.89275669 Element set: 0983 Inclination: 099.0200 deg RA of node: 286.6280 deg Eccentricity: 0.0014463 Arg of perigee: 358.9961 deg Mean anomaly: 001.1187 deg Mean motion: 14.11562566 rev/day Decay rate: 1.00e-06 rev/day^2 Epoch rev: 33644 Checksum: 315
Satellite: NOAA-19 Catalog number: 33591 Epoch time: 11334.85603547 Element set: 0172 Inclination: 098.8448 deg RA of node: 272.3333 deg Eccentricity: 0.0013401 Arg of perigee: 223.3063 deg Mean anomaly: 136.7047 deg Mean motion: 14.11252919 rev/day Decay rate: 9.7e-07 rev/day^2 Epoch rev: 14489 Checksum: 299
/EX SB KEPS @ AMSAT $ORB11335.M Orbital Elements 11335.MISC
HR AMSAT ORBITAL ELEMENTS FOR MANNED AND MISCELLANEOUS SATELLITES FROM WA5QGD FORT WORTH,TX December 1, 2011 Send Subscribe/unsubscribe to KEPS at http://www.amsat.org/mailman/listinfo/keps BID: ORB11335.M TO ALL RADIO AMATEURS BT
Satellite: HUBBLE Catalog number: 20580 Epoch time: 11335.28238065 Element set: 898 Inclination: 028.4708 deg RA of node: 004.6347 deg Eccentricity: 0.0003460 Arg of perigee: 106.4077 deg Mean anomaly: 253.7047 deg Mean motion: 15.01910365 rev/day Decay rate: 3.275e-05 rev/day^2 Epoch rev: 98479 Checksum: 299
Satellite: ISS Catalog number: 25544 Epoch time: 11335.88173611 Element set: 538 Inclination: 051.6411 deg RA of node: 036.9583 deg Eccentricity: 0.0028440 Arg of perigee: 114.3479 deg Mean anomaly: 229.0205 deg Mean motion: 15.58420005 rev/day Decay rate: 2.3559e-04 rev/day^2 Epoch rev: 74708 Checksum: 290
Satellite: CO-58 Catalog number: 28895 Epoch time: 11334.30753915 Element set: 0037 Inclination: 097.9414 deg RA of node: 204.0503 deg Eccentricity: 0.0018877 Arg of perigee: 061.2110 deg Mean anomaly: 299.0964 deg Mean motion: 14.60346662 rev/day Decay rate: 1.276e-05 rev/day^2 Epoch rev: 32448 Checksum: 313
Satellite: FALCON Catalog number: 30776 Epoch time: 11334.61474652 Element set: 227 Inclination: 035.4327 deg RA of node: 054.3846 deg Eccentricity: 0.0001922 Arg of perigee: 072.0129 deg Mean anomaly: 288.0797 deg Mean motion: 15.05915349 rev/day Decay rate: 7.147e-05 rev/day^2 Epoch rev: 26013 Checksum: 292
Satellite: MAST Catalog number: 31126 Epoch time: 11335.62590373 Element set: 322 Inclination: 097.8845 deg RA of node: 353.2939 deg Eccentricity: 0.0094624 Arg of perigee: 010.0211 deg Mean anomaly: 350.2845 deg Mean motion: 14.53929638 rev/day Decay rate: 9.88e-06 rev/day^2 Epoch rev: 24541 Checksum: 300
Satellite: CAPE1 Catalog number: 31130 Epoch time: 11335.55944789 Element set: 333 Inclination: 097.8901 deg RA of node: 349.7765 deg Eccentricity: 0.0102702 Arg of perigee: 021.9664 deg Mean anomaly: 338.5863 deg Mean motion: 14.52628869 rev/day Decay rate: 1.385e-05 rev/day^2 Epoch rev: 24493 Checksum: 331
Satellite: COMPASS Catalog number: 32787 Epoch time: 11334.43256286 Element set: 0158 Inclination: 097.8296 deg RA of node: 035.0189 deg Eccentricity: 0.0015512 Arg of perigee: 358.2352 deg Mean anomaly: 001.8788 deg Mean motion: 14.83129007 rev/day Decay rate: 3.542e-05 rev/day^2 Epoch rev: 19419 Checksum: 311
Satellite: AAUSAT2 Catalog number: 32788 Epoch time: 11335.65506642 Element set: 150 Inclination: 097.8307 deg RA of node: 036.4988 deg Eccentricity: 0.0014963 Arg of perigee: 355.3610 deg Mean anomaly: 004.7462 deg Mean motion: 14.83383141 rev/day Decay rate: 3.921e-05 rev/day^2 Epoch rev: 19439 Checksum: 309
Satellite: DO-64 Catalog number: 32789 Epoch time: 11334.71920243 Element set: 164 Inclination: 097.8387 deg RA of node: 036.9485 deg Eccentricity: 0.0015007 Arg of perigee: 354.6258 deg Mean anomaly: 005.4854 deg Mean motion: 14.84278754 rev/day Decay rate: 5.901e-05 rev/day^2 Epoch rev: 19427 Checksum: 336
Satellite: CO-66 Catalog number: 32791 Epoch time: 11335.70295788 Element set: 153 Inclination: 097.8297 deg RA of node: 036.1384 deg Eccentricity: 0.0015871 Arg of perigee: 353.6678 deg Mean anomaly: 006.4312 deg Mean motion: 14.82709348 rev/day Decay rate: 3.231e-05 rev/day^2 Epoch rev: 19432 Checksum: 328
Satellite: RS-30 Catalog number: 32953 Epoch time: 11335.72512290 Element set: 304 Inclination: 082.5034 deg RA of node: 058.5547 deg Eccentricity: 0.0019045 Arg of perigee: 024.8784 deg Mean anomaly: 335.3219 deg Mean motion: 12.43017696 rev/day Decay rate: 1.0e-07 rev/day^2 Epoch rev: 15990 Checksum: 282
Satellite: TACSAT-3 Catalog number: 35001 Epoch time: 11335.89431428 Element set: 781 Inclination: 040.4507 deg RA of node: 228.1772 deg Eccentricity: 0.0009099 Arg of perigee: 345.5947 deg Mean anomaly: 014.4639 deg Mean motion: 15.61716167 rev/day Decay rate: 8.7793e-04 rev/day^2 Epoch rev: 14316 Checksum: 318
Satellite: PHARMSAT Catalog number: 35002 Epoch time: 11335.87248291 Element set: 724 Inclination: 040.4703 deg RA of node: 228.3032 deg Eccentricity: 0.0013288 Arg of perigee: 019.6320 deg Mean anomaly: 340.5070 deg Mean motion: 15.58037379 rev/day Decay rate: 5.8671e-04 rev/day^2 Epoch rev: 14316 Checksum: 274
Satellite: HAWKSAT1 Catalog number: 35003 Epoch time: 11276.79285837 Element set: 811 Inclination: 040.4398 deg RA of node: 174.3672 deg Eccentricity: 0.0011414 Arg of perigee: 274.3918 deg Mean anomaly: 085.3844 deg Mean motion: 16.13812532 rev/day Decay rate: 2.274821e-02 rev/day^2 Epoch rev: 13457 Checksum: 306
Satellite: CP6 Catalog number: 35004 Epoch time: 11247.64656856 Element set: 784 Inclination: 040.4403 deg RA of node: 342.9642 deg Eccentricity: 0.0002956 Arg of perigee: 038.0069 deg Mean anomaly: 322.2231 deg Mean motion: 16.41039951 rev/day Decay rate: 1.6152067e-01 rev/day^2 Epoch rev: 13013 Checksum: 285
Satellite: METEOR-M Catalog number: 35865 Epoch time: 11335.77528592 Element set: 950 Inclination: 098.6850 deg RA of node: 028.5383 deg Eccentricity: 0.0001756 Arg of perigee: 277.2301 deg Mean anomaly: 082.8675 deg Mean motion: 14.21849105 rev/day Decay rate: 3.5e-07 rev/day^2 Epoch rev: 11440 Checksum: 305
